Location: Kuppenheim
(48.8299°N, 8.2568°E)
Time: 09:23:40
(UTC+00:00)

FALCON 9 DEB - Pass Details

Date: 20 June 2021
Orbit: 362 x 379 km, 53.0° (Epoch: 03 August)

Event Time Altitude Azimuth Distance (km) Brightness Sun altitude
Rises 00:32:38 0° 288° (WNW) 2,278 6.8 -16.3°
Reaches altitude 10° 00:34:47 10° 296° (WNW) 1,422 5.9 -16.2°
Maximum altitude 00:37:48 40° 8° (N) 593 4.4 -16.1°
Drops below altitude 10° 00:40:49 10° 80° (E) 1,416 6.1 -16.0°
Sets 00:42:57 0° 88° (E) 2,267 7.0 -15.8°
